Waarnemingen

Advertentie
Mijn weer
K14A, Nederland (6204): temperatuur & dauwpunt: 19.06.2017 05:00:00 - 25.06.2017 05:00:00 (CEST)K14A, Nederland (6204): windsnelheid & windstoten: 19.06.2017 05:00:00 - 25.06.2017 05:00:00 (CEST)K14A, Nederland (6204): windrichting: 19.06.2017 05:00:00 - 25.06.2017 05:00:00 (CEST)K14A, Nederland (6204): luchtdruk: 19.06.2017 05:00:00 - 25.06.2017 05:00:00 (CEST)K14A, Nederland (6204): zicht: 19.06.2017 05:00:00 - 25.06.2017 05:00:00 (CEST)
Datum & Tijd tt [°C] td [°C] ff [km/u] ff [kn] fx [km/u] fx [kn] dd ppp [hPa] vv [km]
25.06.2017 05:00:00 16,2 13,2 35 19 36 19 W 1009,0 10
25.06.2017 04:00:00 15,8 14,0 24 13 25 14 WZW 1008,8 10
25.06.2017 03:00:00 15,9 13,9 28 15 25 14 W 1008,9 10
25.06.2017 02:00:00 16,0 14,1 26 14 25 14 W 1009,3 10
25.06.2017 01:00:00 15,7 14,7 24 13 25 14 WZW 1009,7 8
25.06.2017 00:00:00 15,9 15,0 26 14 25 14 W 1009,8 9
24.06.2017 23:00:00 15,7 14,9 24 13 25 14 ZW 1009,7 8
24.06.2017 22:00:00 15,7 14,9 28 15 25 14 ZW 1009,9 7
24.06.2017 21:00:00 15,9 14,6 22 12 25 14 ZZW 1010,1 10
24.06.2017 20:00:00 16,3 14,4 24 13 25 14 ZZW 1010,3 10
24.06.2017 19:00:00 16,6 13,1 13 7 14 8 Z 1011,0 10
24.06.2017 18:00:00 16,3 12,2 18 10 22 12 Z 1011,4 10
24.06.2017 17:00:00 15,9 12,3 21 11 22 12 ZZW 1012,0 10
24.06.2017 16:00:00 15,6 12,0 21 11 22 12 ZZW 1012,3 10
24.06.2017 15:00:00 15,7 11,7 26 14 25 14 W 1012,5 10
24.06.2017 14:00:00 15,5 12,1 29 16 29 16 W 1012,8 10
24.06.2017 13:00:00 15,6 12,8 29 16 36 19 W 1012,6 10
24.06.2017 12:00:00 15,2 12,4 23 13 - - W 1012,2 25
24.06.2017 11:00:00 15,4 12,9 35 19 40 21 W 1012,1 10
24.06.2017 10:00:00 15,2 13,1 46 25 58 31 W 1011,7 10
24.06.2017 09:00:00 16,1 13,8 46 25 47 25 WZW 1011,6 10
24.06.2017 08:00:00 16,2 13,6 50 27 50 27 WZW 1011,1 10
24.06.2017 07:00:00 16,0 13,7 44 24 43 23 WZW 1011,3 10
24.06.2017 06:00:00 16,2 13,7 42 23 43 23 WZW 1011,4 10
24.06.2017 05:00:00 16,3 13,7 46 25 43 23 WZW 1011,7 10
24.06.2017 04:00:00 16,4 13,7 44 24 43 23 ZW 1011,8 10
24.06.2017 03:00:00 16,6 13,6 44 24 43 23 WZW 1012,3 10
24.06.2017 02:00:00 16,5 13,9 41 22 43 23 WZW 1012,6 10
24.06.2017 01:00:00 16,6 14,0 39 21 40 21 WZW 1013,3 10
24.06.2017 00:00:00 16,0 14,1 34 18 40 21 WZW 1013,6 10
23.06.2017 23:00:00 16,8 14,1 35 19 40 21 WZW 1013,7 10
23.06.2017 22:00:00 16,4 14,1 39 21 36 19 ZW 1013,4 10
23.06.2017 21:00:00 16,0 13,9 32 18 40 21 ZZW 1013,3 12
23.06.2017 20:00:00 16,0 13,5 39 21 40 21 ZZW 1013,5 10
23.06.2017 19:00:00 15,8 13,7 35 19 32 18 ZZW 1013,4 10
23.06.2017 18:00:00 15,5 13,3 37 20 36 19 ZZW 1013,8 10
23.06.2017 17:00:00 15,3 13,2 35 19 40 21 ZW 1014,4 10
23.06.2017 16:00:00 15,4 12,7 41 22 40 21 WZW 1014,1 10
23.06.2017 15:00:00 15,3 12,5 39 21 36 19 ZW 1014,0 10
23.06.2017 14:00:00 15,1 12,6 37 20 36 19 WZW 1014,1 10
23.06.2017 13:00:00 14,9 12,9 37 20 36 19 WZW 1013,9 10
23.06.2017 12:00:00 15,0 12,6 34 18 36 19 WZW 1014,0 10
23.06.2017 11:00:00 15,5 12,5 37 20 36 19 W 1014,1 10
23.06.2017 10:00:00 15,2 12,9 37 20 36 19 WZW 1013,5 10
23.06.2017 09:00:00 15,6 12,0 35 19 36 19 WZW 1013,1 10
23.06.2017 08:00:00 15,2 12,7 31 17 32 18 WZW 1012,6 10
23.06.2017 07:00:00 15,5 12,1 37 20 36 19 W 1012,8 10
23.06.2017 06:00:00 15,1 12,5 34 18 32 18 W 1012,6 10
23.06.2017 05:00:00 15,5 12,4 26 14 32 18 W 1012,4 10
23.06.2017 04:00:00 15,4 12,1 37 20 36 19 W 1012,4 10
23.06.2017 03:00:00 15,7 13,6 26 14 29 16 W 1012,6 10
23.06.2017 02:00:00 15,5 13,8 31 17 32 18 W 1012,2 9
23.06.2017 01:00:00 15,3 14,2 35 19 40 21 W 1012,0 6
23.06.2017 00:00:00 15,4 14,0 42 23 47 25 W 1011,9 9
22.06.2017 23:00:00 15,1 14,0 44 24 47 25 W 1011,7 8
22.06.2017 22:00:00 15,0 14,2 48 26 50 27 W 1011,2 4,7
22.06.2017 21:00:00 15,1 14,3 35 19 50 27 WNW 1010,2 4,9
22.06.2017 20:00:00 15,4 14,7 50 27 50 27 W 1009,8 1,5
22.06.2017 19:00:00 16,3 14,3 55 30 54 29 W 1008,9 10
22.06.2017 18:00:00 16,5 14,9 42 23 43 23 W 1008,3 6
22.06.2017 17:00:00 16,4 14,7 37 20 40 21 WZW 1007,8 8
22.06.2017 16:00:00 16,7 15,1 39 21 43 23 W 1007,9 6
22.06.2017 15:00:00 17,7 15,7 28 15 43 23 WZW 1008,1 2,7
22.06.2017 14:00:00 17,1 15,8 41 22 47 25 WZW 1009,0 3,6
22.06.2017 13:00:00 17,3 15,8 34 18 36 19 WZW 1008,6 4,3
22.06.2017 12:00:00 17,1 15,6 39 21 40 21 WZW 1008,7 4,0
22.06.2017 11:00:00 17,2 15,6 39 21 40 21 W 1008,6 4,7
22.06.2017 10:00:00 17,0 15,3 39 21 40 21 WZW 1008,5 5
22.06.2017 09:00:00 17,1 15,2 39 21 40 21 WZW 1008,3 6
22.06.2017 08:00:00 17,3 15,0 37 20 40 21 ZW 1007,3 7
22.06.2017 07:00:00 17,9 15,0 41 22 40 21 ZZW 1007,9 8
22.06.2017 06:00:00 19,1 15,2 44 24 47 25 Z 1008,6 10
22.06.2017 05:00:00 18,9 15,1 46 25 43 23 ZZO 1009,0 10
22.06.2017 04:00:00 19,0 15,0 42 23 43 23 ZZO 1009,9 10
22.06.2017 03:00:00 19,5 15,5 36 19 43 23 ZZO 1010,8 21
22.06.2017 02:00:00 19,6 15,9 35 19 40 21 ZO 1012,5 10
22.06.2017 01:00:00 18,9 15,3 41 22 40 21 ZO 1013,0 10
22.06.2017 00:00:00 18,4 15,2 42 23 50 27 OZO 1013,3 10
21.06.2017 23:00:00 17,6 15,4 54 29 50 27 OZO 1012,4 10
21.06.2017 22:00:00 17,0 15,0 42 23 43 23 O 1014,2 10
21.06.2017 21:00:00 16,3 14,4 41 22 40 21 O 1014,9 10
21.06.2017 20:00:00 16,8 14,6 34 18 32 18 O 1015,2 10
21.06.2017 19:00:00 16,8 14,0 26 14 40 21 OZO 1015,1 10
21.06.2017 18:00:00 16,6 13,5 21 11 - - O 1015,9 10
21.06.2017 17:00:00 16,7 13,0 - - - - - 1017,1 10
21.06.2017 16:00:00 17,5 12,7 - - - - - 1017,5 10
21.06.2017 15:00:00 16,8 12,0 34 18 - - OZO 1017,8 10
21.06.2017 14:00:00 15,7 11,9 25 14 29 16 O 1018,5 27
21.06.2017 13:00:00 15,7 12,0 29 16 29 16 O 1019,1 10
21.06.2017 12:00:00 15,3 11,6 29 16 29 16 O 1019,5 10
21.06.2017 11:00:00 15,6 11,6 29 16 29 16 O 1019,9 10
21.06.2017 10:00:00 - - 29 16 29 16 O 1020,1 10
21.06.2017 09:00:00 15,3 11,9 24 13 29 16 O 1020,3 10
21.06.2017 08:00:00 15,5 12,3 31 17 29 16 O 1020,1 10
21.06.2017 07:00:00 15,1 11,8 28 15 29 16 O 1020,2 10
21.06.2017 06:00:00 15,1 11,8 28 15 29 16 O 1020,3 10
21.06.2017 05:00:00 14,9 11,5 29 16 29 16 O 1020,6 10
21.06.2017 04:00:00 14,9 11,3 31 17 29 16 ONO 1020,9 10
21.06.2017 03:00:00 15,1 11,5 28 15 29 16 ONO 1021,2 10
21.06.2017 02:00:00 15,0 11,3 31 17 32 18 ONO 1021,7 10
21.06.2017 01:00:00 15,3 11,4 34 18 32 18 ONO 1021,6 10
21.06.2017 00:00:00 14,9 11,1 35 19 36 19 ONO 1021,8 10
20.06.2017 23:00:00 15,1 11,0 37 20 36 19 NO 1021,7 10
20.06.2017 22:00:00 15,1 10,5 35 19 36 19 ONO 1021,6 10
20.06.2017 21:00:00 15,1 10,9 37 20 40 21 NO 1021,3 10
20.06.2017 20:00:00 15,1 11,4 39 21 40 21 NO 1021,3 10
20.06.2017 19:00:00 15,1 11,5 41 22 40 21 NO 1021,2 10
20.06.2017 18:00:00 15,0 11,5 39 21 40 21 NO 1021,4 10
20.06.2017 17:00:00 15,0 12,2 39 21 40 21 NO 1021,7 10
20.06.2017 16:00:00 15,0 12,7 35 19 36 19 NO 1021,3 10
20.06.2017 15:00:00 15,1 13,1 35 19 36 19 NO 1021,4 10
20.06.2017 14:00:00 15,1 13,4 35 19 32 18 NO 1021,6 10
20.06.2017 13:00:00 15,1 13,4 35 19 32 18 NO 1021,6 10
20.06.2017 12:00:00 15,0 13,6 34 18 36 19 NO 1021,5 10
20.06.2017 11:00:00 14,9 14,0 35 19 36 19 ONO 1020,8 10
20.06.2017 10:00:00 14,6 14,5 34 18 32 18 NO 1020,4 1,0
20.06.2017 09:00:00 14,6 14,6 34 18 32 18 NO 1019,9 0,4
20.06.2017 08:00:00 15,4 14,8 35 19 36 19 NO 1019,2 10
20.06.2017 07:00:00 16,3 15,5 29 16 29 16 NO 1019,2 10
20.06.2017 06:00:00 16,7 15,7 28 15 29 16 NNO 1019,0 9
20.06.2017 05:00:00 17,3 16,2 26 14 29 16 NNO 1018,7 7
20.06.2017 04:00:00 19,0 13,9 15 8 18 10 NNO 1018,8 10
20.06.2017 03:00:00 18,4 15,1 21 11 22 12 NNO 1018,7 10
20.06.2017 02:00:00 18,7 15,6 15 8 18 10 NO 1018,8 10
20.06.2017 01:00:00 18,2 17,4 18 10 18 10 NNO 1019,0 4,5
20.06.2017 00:00:00 18,9 18,2 16 9 14 8 N 1019,1 4,7
19.06.2017 23:00:00 19,5 18,5 11 6 11 6 N 1019,0 5
19.06.2017 22:00:00 20,5 18,3 5 3 7 4 N 1019,1 9
19.06.2017 21:00:00 21,5 18,1 2 1 4 2 Z 1019,1 10
19.06.2017 20:00:00 23,0 17,1 4 2 4 2 ZO 1018,8 10
19.06.2017 19:00:00 21,9 18,3 5 3 7 4 OZO 1018,8 10
19.06.2017 18:00:00 21,7 18,0 4 2 4 2 O 1019,2 10
19.06.2017 17:00:00 20,8 17,8 4 2 4 2 ONO 1019,8 10
19.06.2017 16:00:00 20,1 17,0 4 2 4 2 OZO 1020,0 10
19.06.2017 15:00:00 19,4 17,7 4 2 4 2 OZO 1020,2 10
19.06.2017 14:00:00 19,4 16,9 4 2 7 4 O 1020,8 10
19.06.2017 13:00:00 19,3 16,8 5 3 7 4 O 1021,2 10
19.06.2017 12:00:00 19,6 16,8 2 1 7 4 Z 1021,3 10
19.06.2017 11:00:00 19,3 16,6 2 1 7 4 - 1021,4 10
19.06.2017 10:00:00 18,8 16,2 8 4 11 6 OZO 1021,7 10
19.06.2017 09:00:00 17,5 15,9 11 6 11 6 OZO 1021,8 10
19.06.2017 08:00:00 17,7 15,6 11 6 11 6 OZO 1022,1 10
19.06.2017 07:00:00 17,9 16,0 9 5 7 4 O 1022,1 10
19.06.2017 06:00:00 18,4 15,1 8 4 7 4 O 1022,2 10
19.06.2017 05:00:00 19,0 14,0 8 4 7 4 O 1022,3 10

tt = temperatuur
td = dauwpunt
ff = windsnelheid
fx = windstoten
dd = windrichting
ppp = luchtdruk
vv = zicht

Weerstations in de omgeving